SCOUT B R/B, 2206

Orbit data source: Space-Track

SCOUT B R/B, 2206 is space debris in LEO originally from a launch on Fri, 10 Jun 1966 UTC launched from the Wallops Island (WLPIS). Debris objects in space refer to the collection of defunct objects orbiting the Earth. Examples of debris include non-operational satellites, rocket bodies, and fragments generated from explosions, collisions, or faulty payload assembly.

Loading next visibility...
SCOUT B R/B details
Identifier
2206, 1966-052B
Orbit
LEO
Last TLE update7 hours ago
Origin
Flag of USNASA LaRC (US)
ManufacturerUTC
MissionSpacecraft
Bus & MotorFW4, Unknown motor
Mass47 kg wet, 47 kg dry
Launch date (UTC)
1966-06-10 (59 years ago)
Launch vehicleUnknown
Launch site
Wallops Island (WLPIS)
Object type
Payload
Rocket body
Debris
Shape & HBRCyl, 1.5 m
Radar Cross Section0.687 m², Medium (>0.1 m² and < 1m²)

Expand to show TLE details & history

TLE from 7 hours ago
0 SCOUT B R/B
1 02206U 66052B   24356.93553696  .00000287  00000-0  45659-3 0  9994
2 02206  40.8588 305.6565 2211358 160.3765 209.7688 10.14261315147720
Epoch: 2024-12-21T22:27Z
Definitive object data (Epoch: 2024-12-21T22:27:10.393Z)
Latitude0.00001°
Longitude-122.11635°
Altitude4,450.338 km
Speed5.425 km/s
True Right ascension20h 22m 37s
True Declination0° 00' 00"
Sunlit
Object was in daylight at TLE epoch
Visualization TLE readout
Latitude27.35276°
Longitude-86.33132°
Altitude3,147.76 km
Speed6.287 km/s
Apparent Right ascension20h 49m 19s
Apparent Declination1° 38' 39"
Sunlit
Object is in daylight
Visualization observer readout
Local Sidereal Time05:00:30
Azimuth293.731° NW
Elevation-23.38°
Doppler factor1
Orbital elements
Apogee altitude4,632.785 km
Perigee altitude644.843 km
Semi-major axis9,016.951 km
Eccentricity0.2211358
Inclination40.8588°
RAAN305.6565°
Arg. of periapsis160.3765°
True anomaly199.68449°
Mean anomaly209.7688°
Eccentric anomaly204.51213°
Mean motion2.53486 °/min
BSTAR0.00045659
Orbital period142.02 mins
Loading maneuver chart data...
Loading historical data...
Loading historical data...
Loading historical data...
Loading historical data...
Loading historical data...
Loading historical data...
Loading historical data...
Other satellites on launch #52 in the year 1966 (1966-06-10 UTC)

SCOUT B R/B Visibility forecast

Observer location: undefined°, undefined

Span
Click to sort rows by Start time (UTC) header in descending order
Start Az.
Max El. time (UTC)
Max El. Az.
Max El.
End time (UTC)
End Az.
11 mins2024-12-22 06:15:49.792Z282.026° WNW2024-12-22 06:22:49.792Z215.763° SW32.116°2024-12-22 06:26:49.792Z150.57° SSE
17 mins2024-12-22 19:43:49.792Z148.296° SSE2024-12-22 19:52:49.792Z127.8° SE13.393°2024-12-22 20:00:49.792Z106.487° ESE
35 mins2024-12-22 22:04:49.792Z202.896° SW2024-12-22 22:26:49.792Z141.124° SSE34.645°2024-12-22 22:39:49.792Z78.843° E
30 mins2024-12-23 00:39:49.792Z241.975° WSW2024-12-23 00:59:49.792Z164.256° S44.451°2024-12-23 01:09:49.792Z76.692° E
19 mins2024-12-23 03:18:49.792Z274.067° WNW2024-12-23 03:31:49.792Z4.255° NNE44.933°2024-12-23 03:37:49.792Z93.878° ESE
|